[Iaude] MPEC F24: 2024 FL [a=1.76,e=0.41,i=4.1,H=26.2]
    mpec at cfa.harvard.edu 
    mpec at cfa.harvard.edu
       
    Tue Mar 19 03:47:54 EDT 2024
    
    
  
M.P.E.C. 2024-F24                                Issued 2024 March 19, 07:46 UT
     The Minor Planet Electronic Circulars contain information on unusual
         minor planets, routine data on comets and natural satellites,
         and occasional editorial announcements.  They are published
    on behalf of Division F of the International Astronomical Union by the
          Minor Planet Center, Smithsonian Astrophysical Observatory,
                          Cambridge, MA 02138, U.S.A.
			  
             Prepared using the Tamkin Foundation Computer Network
                              MPC at CFA.HARVARD.EDU
            URL https://www.minorplanetcenter.net/    ISSN 1523-6714
                                    2024 FL                                     
Observations:
     K24F00L* C2024 03 17.47296912 08 45.547-07 04 50.38         21.69wXEF024F51
     K24F00L  C2024 03 17.48678612 08 51.008-07 04 49.39         21.58wXEF024F51
     K24F00L  C2024 03 17.50057912 08 56.487-07 04 48.38         21.32wXEF024F51
     K24F00L  C2024 03 17.60019512 09 36.648-07 04 39.05         21.47GVEF024F51
     K24F00L  C2024 03 17.60101512 09 37.001-07 04 39.01         21.19GVEF024F51
     K24F00L  C2024 03 17.60347512 09 38.017-07 04 38.74         21.58GVEF024F51
     K24F00L  C2024 03 17.60429112 09 38.400-07 04 38.95         21.40GVEF024F51
     K24F00L |C2024 03 18.21070012 14 17.210-07 02 29.30         21.6 GVEF024807
     K24F00L |C2024 03 18.21400012 14 18.580-07 02 29.20         21.4 GVEF024807
     K24F00L |C2024 03 18.21730012 14 20.000-07 02 29.10         21.4 GVEF024807
     K24F00L  C2024 03 18.47047712 16 17.328-07 03 39.31               VEF024F51
     K24F00L  C2024 03 18.47129312 16 17.615-07 03 39.65               VEF024F51
     K24F00L |C2024 03 19.28782012 22 53.110-07 00 20.40         20.9 GVEF024807
     K24F00L |C2024 03 19.29230012 22 55.180-07 00 19.20         21.1 GVEF024807
     K24F00L |C2024 03 19.29663012 22 57.200-07 00 18.30         21.0 GVEF024807
Observer details:
807 Cerro Tololo Observatory, La Serena.  Observers T. Linder, R. Holmes.
    0.61-m f/6.8 Ritchey-Chretien + CCD.
F51 Pan-STARRS 1, Haleakala.  Observers J. Herman, T. Lowe, P. Minguez, A.
    Schultz, I. Smith.  Measurers K. Chambers, T. de Boer, J. Fairlamb, H.
    Gao, M. Huber, C.-C. Lin, E. Magnier, Y. Ramanjooloo, R. Wainscoat, R.
    Weryk.  1.8-m Ritchey-Chretien + CCD.
Orbital elements:
2024 FL                                                  Earth MOID = 0.0376 AU
Epoch 2024 Mar. 31.0 TT = JDT 2460400.5                 MPC                     
M 353.38884              (2000.0)            P               Q                  
n   0.42369307     Peri.   25.60045     -0.87217680     +0.48916948             
a   1.7556387      Node   183.69515     -0.46012210     -0.82348440             
e   0.4133629      Incl.    4.06304     -0.16611827     -0.28737896             
P   2.33           H   26.28          G   0.15           U   8                  
Residuals in seconds of arc
240317 F51  0.5-  0.0     240317 F51  0.1-  0.2+    240318 F51  0.5-  0.1-
240317 F51  0.2-  0.2+    240317 F51  0.5+  0.1-    240318 F51 (1.4-  0.5-)
240317 F51  0.2+  0.3+    240318 807  0.3+  0.2+    240319 807  0.2+  0.3-
240317 F51  0.3-  0.3+    240318 807  0.0   0.0     240319 807  0.0   0.1+
240317 F51  0.1-  0.2+    240318 807  0.5+  0.2-    240319 807  0.0   0.1+
Ephemeris:
2024 FL                  a,e,i = 1.76, 0.41, 4                   q = 1.0299
Date    TT    R. A. (2000) Decl.     Delta      r    Elong.  Phase     V
2024 02 18    10 41 13.2 -04 46 46   0.2172  1.1952   160.7    15.9    24.2
...
2024 03 04    11 08 03.1 -06 27 01   0.1376  1.1260   166.9    11.5    22.9
...
2024 03 12    11 36 35.7 -06 58 26   0.1030  1.0951   169.5     9.5    22.2
...
2024 03 18    12 12 40.1 -07 03 29   0.08102 1.0752   170.3     9.0    21.6
2024 03 19    12 20 32.4 -07 01 46   0.07777 1.0722   170.0     9.3    21.5
2024 03 20    12 29 03.7 -06 59 02   0.07467 1.0693   169.5     9.8    21.4
...
2024 03 26    13 36 09.1 -06 10 59   0.05957 1.0539   160.6    18.3    21.2
...
2024 04 03    15 42 34.1 -03 06 11   0.05292 1.0390   136.8    41.2    21.6
...
2024 04 18    18 33 24.5 +02 25 55   0.07995 1.0302   106.9    68.8    23.3
A. U. Tomatic                (C) Copyright 2024 MPC           M.P.E.C. 2024-F24
    
    
More information about the Iaude
mailing list